Regional Weather Roundup
Issued by NWS

Home | Current Version | Previous Version | Text Only | Print | Product List | Glossary Off
Versions: 1 2 3 4 5 6 7 8 9 10 11 12 13 14 15 16 17 18 19 20 21 22 23 24 25 26 27 28 29 30 31 32 33 34 35 36 37 38 39 40 41 42 43 44 45 46 47 48 49 50

000
ASUS45 KCYS 151510
RWRWY

WYOMING REGIONAL WEATHER ROUNDUP
NATIONAL WEATHER SERVICE CHEYENNE WY
800 AM MST MON JAN 15 2018

NOTE:  "FAIR" INDICATES FEW OR NO CLOUDS BELOW 12,000 FEET
WITH NO SIGNIFICANT WEATHER AND/OR OBSTRUCTIONS TO VISIBILITY.

WYZ001-151600-
YELLOWSTONE NATIONAL PARK

CITY           SKY/WX    TMP DP  RH WIND       PRES   REMARKS
LK YELLOWSTONE   N/A      8   6  92 NW5       30.38R WCI   0
W YELLOWSTONE  NOT AVBL

$$
WYZ002>013-054>058-071-098>099-151600-
NORTHERN WYOMING

CITY           SKY/WX    TMP DP  RH WIND       PRES   REMARKS
JACKSON        FOG       10   8  92 S3        30.38S VSB<1/4
CODY           FLURRIES  14  12  92 NE12      30.52R WCI   0
GREYBULL       FAIR      17   6  62 NW20G31   30.52R WCI   1
WORLAND        FAIR      15  11  83 W7        30.53R WCI   5
SHERIDAN       FAIR      -3  -5  90 NW6       30.64R WCI -15
BUFFALO        CLOUDY     3  -3  76 W6        30.53R HAZE    WCI  -8
GILLETTE       FAIR      -9 -13  83 NW12      30.58R WCI -28
HULETT         LGT SNOW  -6 -11  77 MISG      30.60R
NEWCASTLE      FAIR      -9 -17  70 MISG      30.54R

$$
WYZ014>020-022>026-101>103-151600-
CENTRAL WYOMING

CITY           SKY/WX    TMP DP  RH WIND       PRES   REMARKS
BIG PINEY      FAIR      18  14  84 SE12      30.33R WCI   5
PINEDALE       FAIR      12  12 100 SE5       30.34R WCI   4
DUBOIS         CLOUDY    23  21  93 SE5       30.34R FOG     WCI  17
LANDER         CLOUDY    23  21  92 NE10      30.45R FOG     WCI  12
RIVERTON       CLOUDY    22  15  75 NE16G22   30.43R WCI   8
CASPER         CLOUDY    11   3  70 NE7       30.49R WCI   0
DOUGLAS        FAIR       5  -5  63 N7        30.51R WCI  -7

$$
WYZ021-027>030-104>119-151600-
SOUTHERN WYOMING

CITY           SKY/WX    TMP DP  RH WIND       PRES   REMARKS
EVANSTON       FAIR      21  19  92 CALM      30.31S
FORT BRIDGER   FAIR      28  22  78 W8        30.34R WCI  20
ROCK SPRINGS   CLOUDY    24  22  91 E5        30.35R WCI  18
DIXON            N/A     19  16  88 CALM      30.36R
RAWLINS        CLOUDY    23  17  78 N7        30.36R WCI  15
SARATOGA       CLOUDY    23  18  80 N13G21    30.34R WCI  11
LARAMIE        FLURRIES  16  15  96 N12       30.30R WCI   3
CHEYENNE       CLOUDY    13   3  64 N21G28    30.35R WCI  -5
TORRINGTON     FAIR       9  -3  58 NW12      30.50R WCI  -6

$$



USA.gov is the U.S. government's official web portal to all federal, state and local government web resources and services.